Regional Weather Roundup
Issued by NWS Upton, NY

Current Version | Previous Version | Graphics & Text | Print | Product List | Glossary Off
Versions: 1 2 3 4 5 6 7 8 9 10 11 12 13 14 15 16 17 18 19 20 21 22 23 24 25 26 27

000
ASUS41 KOKX 191505
RWROKX

Regional Weather Roundup
National Weather Service New York NY
1100 AM EDT THU APR 19 2018

Note: "FAIR" indicates few or no clouds below 12,000 feet with no
significant weather and/or obstructions to visibility.

NYZ071-072-176-178-NJZ106-104-191600-
New York City Metro Area

CITY           SKY/WX    TMP DP  RH WIND       PRES   REMARKS
Central Park   CLOUDY    43  37  79 N9        29.73R
Bronx Bot Gard   N/A     41  36  81 W5        29.70S
Bronx Lehman C   N/A     41  36  81 N6          N/A
LaGuardia Arpt CLOUDY    44  37  76 N8        29.70R
Queens College   N/A     43  37  81 N7          N/A
Kennedy Intl   CLOUDY    44  39  82 N14       29.70S
Breezy Point     N/A     43 N/A N/A N12         N/A
Brooklyn Coll    N/A     45  37  76 N12         N/A
Staten Island    N/A     43  37  81 N10         N/A
Newark/Liberty LGT RAIN  45  39  79 N10       29.72R
Teterboro      LGT RAIN  44  37  76 N8        29.71R
$$

NYZ177-179-078>081-191600-
Long Island New York

CITY           SKY/WX    TMP DP  RH WIND       PRES   REMARKS
Jones Beach      N/A     43 N/A N/A N13         N/A
Wantagh          N/A     43  37  81 N12         N/A
Hempstead        N/A     43  39  87 NW6       29.73S
Matinecock Pt    N/A     41 N/A N/A NE9         N/A
Farmingdale    CLOUDY    43  38  82 N13       29.68S
MacArthur/ISP  CLOUDY    43  39  86 N16       29.68S
Stony Brook      N/A     41  37  87 NE7         N/A
Shirley        CLOUDY    43  40  89 N9        29.69F
Mt Sinai Harb    N/A     41 N/A N/A N12         N/A
Westhampton    CLOUDY    42  38  85 N15       29.70F
East Hampton   CLOUDY    40  38  91 N9        29.69S WCI  34
Southold         N/A     41  37  87 N10         N/A
Montauk          N/A     42  39  89 N9        29.71R
$$

NYZ052-065-067-191600-
Hudson Valley

CITY           SKY/WX    TMP DP  RH WIND       PRES   REMARKS
White Plains   PTSUNNY   40  36  86 NE6       29.68S
Larchmont Harb   N/A     41 N/A N/A N8          N/A
Croton On Huds   N/A     41 N/A N/A W2          N/A
Somers           N/A     39  36  87 N3          N/A
Brewster         N/A     37  36  93 N5          N/A  WCI  34
Newburgh       CLOUDY    37  36  93 VRB6      29.72S WCI  33
Montgomery     CLOUDY    38  35  89 N7        29.70S WCI  33
Otisville        N/A     36  34  93 E1          N/A
Warwick          N/A     37  37 100 NW5         N/A  WCI  34
Suffern          N/A     39  36  87 NE1         N/A
Poughkeepsie   CLOUDY    38  34  85 N5        29.71S WCI  34
Albany         CLOUDY    42  31  64 NW7       29.72F
$$

NJZ001-105-106-008-010-013-015-019>022-104-191600-
New Jersey

CITY           SKY/WX    TMP DP  RH WIND       PRES   REMARKS
Newark/Liberty LGT RAIN  45  39  79 N10       29.72R
Teterboro      LGT RAIN  44  37  76 N8        29.71R
Caldwell       LGT RAIN  40  37  89 VRB3      29.73R
Somerville     LGT RAIN  42  38  85 NW8       29.72R
Linden         CLOUDY    44  38  78 CALM      29.72R
Perth Amboy      N/A     43 N/A N/A NW10        N/A
Sussex         CLOUDY    39  36  89 CALM      29.71S
Andover          N/A     39  35  86 VRB3      29.72R
Trenton        CLOUDY    45  39  79 N10       29.71R
Millville      LGT RAIN  50  43  77 W8        29.72R
Atlantic City  CLOUDY    54  42  64 CALM      29.70R
Wrightstown    FAIR      47  39  74 N8        29.68R
Toms River     LGT RAIN  50  41  71 N12       29.69R
Belmar         CLOUDY    46  39  76 NW10      29.72R
$$

PAZ047>061-062-071-191600-
Eastern Pennsylvania

CITY           SKY/WX    TMP DP  RH WIND       PRES   REMARKS
Philadelphia   CLOUDY    48  40  73 N5        29.72R
Allentown      CLOUDY    43  34  70 N6        29.73R
Scranton       LGT SNOW  35  33  92 N9        29.73S FOG     WCI  28
$$

CTZ002-004>006-009-010-012-RIZ004-006-007-MAZ004-011-015-191600-
Southern New England

 In CT

CITY           SKY/WX    TMP DP  RH WIND       PRES   REMARKS
Bradley Intl   CLOUDY    37  35  92 CALM      29.70F
Hartford       CLOUDY    39  36  89 NE6       29.71F WCI  35
Danbury        CLOUDY    39  35  86 NE7       29.69F WCI  34
Wtrbury/Oxford CLOUDY    37  34  87 CALM      29.70S
Norwalk Harbor   N/A     39 N/A N/A N9          N/A  WCI  33
Bridgeport     CLOUDY    42  37  82 NE10      29.70S
Meriden        CLOUDY    39  36  89 CALM      29.71F
New Haven      CLOUDY    41  36  82 N12       29.71S
Chester        CLOUDY    41  37  87 N9        29.69F
Groton         CLOUDY    41  39  93 N13       29.68S
Willimantic    CLOUDY    40  36  86 E3        29.70F

 In RI

CITY           SKY/WX    TMP DP  RH WIND       PRES   REMARKS
Providence     LGT RAIN  40  39  97 N8        29.72R WCI  34
Block Island   LGT RAIN  40  40 100 N13       29.72R WCI  32
Westerly       CLOUDY    41  40  96 N8        29.71R

In MA

CITY           SKY/WX    TMP DP  RH WIND       PRES   REMARKS
Boston         CLOUDY    38  34  85 W8        29.73R WCI  32
Worcester      CLOUDY    34  31  88 CALM      29.67F
Westfield      CLOUDY    37  37 100 CALM      29.69
Provincetown   LGT RAIN  39  37  92 N7        29.71F WCI  34
Nantucket      CLOUDY    43  41  93 NE9       29.68F
$$

ANZ330-335-338-340-345-350-353-355-191600-
Coastal Marine Observations


STATION/POSITION TIME  SKY/WX   TEMP    WIND        PRES    VSBY  WAVE
                                AIR SEA DIR/SP/G                  HT/PER
                 (UTC)          (F)     (DEG/KT/KT) (MB)    (MI)  (FT/S)
NY Harb Entrance 1450            43 45   10/ 14/ 16 1004.8          3/ 8
20 S Fire Island 1450            44 43  350/ 14/ 17 1004.9          3/ 8
23 SSW Montauk P 1450            42 42  330/ 17/ 21 1004.8          3/ 9
15 E Barnegat Li 1430               44                N/A           3/ 8
Hudson Canyon    1450            45 45   50/ 16/ 19 1002.1          4/ 4
Kings Point      1448               44                N/A
Execution Rocks  NOT AVBL
Western LI Sound NOT AVBL
Central LI Sound 1430            41      20/ 12/ 16   N/A           1
Robbins Reef     1442            43     350/ 14/ 15 1006.3
$$


>>>>>>>>>>>>>>>>>>>>>>>>>>>> KEY <<<<<<<<<<<<<<<<<<<<<<<<<<<
>                                                          <
>     SKY/WX - Sky Condition/Present Weather               <
>     TMP    - Temperature in Fahrenheit                   <
>     DP     - Dew Point in Fahrenheit                     <
>     RH     - Relative Humidity in Percent                <
>     WIND   - Direction (from) and Speed in MPH           <
>     PRES   - Mean Sea Level Pressure (inches of Hg)      <
>     WCI    - Wind Chill Index                            <
>     VSB    - Visibility in Miles                         <
>     HX     - Heat Index                                  <
>     TC     - Temperature in Celsius                      <
>     VRB    - Varibale Wind Direction                     <
>                                                          <
>>>>>>>>>>>>>>>>>>>>>>>>>>>> KEY <<<<<<<<<<<<<<<<<<<<<<<<<<<




USA.gov is the U.S. government's official web portal to all federal, state and local government web resources and services.